| time (UTC) | temp F | wind direction | speed MPH | gust MPH | rain 1hr in | rain 24hr in | rain mn in | humidity % | barometer mb |
| 20260905173044 | 71 | 348 | 6.0 | 13.0 | 0.00 | 0.00 | 0.00 | 54 | 1009.1 |
| 20260905171549 | 71 | 12 | 3.0 | 9.0 | 0.00 | 0.00 | 0.00 | 54 | 1009.1 |
| 20260905170043 | 72 | 15 | 2.0 | 7.0 | 0.00 | 0.00 | 0.00 | 55 | 1009.1 |
| 20260905164509 | 70 | 351 | 1.0 | 9.0 | 0.00 | 0.00 | 0.00 | 46 | 1009.3 |
| 20260905163006 | 69 | 335 | 3.0 | 11.0 | 0.00 | 0.00 | 0.00 | 46 | 1009.4 |
| 20260905161533 | 68 | 5 | 5.0 | 11.0 | 0.00 | 0.00 | 0.00 | 46 | 1009.4 |
| 20260905160033 | 68 | 24 | 5.0 | 15.0 | 0.00 | 0.00 | 0.00 | 41 | 1009.5 |
| 20260905154525 | 68 | 27 | 7.0 | 13.0 | 0.00 | 0.00 | 0.00 | 43 | 1009.6 |
| 20260905153030 | 67 | 64 | 5.0 | 14.0 | 0.00 | 0.00 | 0.00 | 39 | 1009.7 |
| 20260905151522 | 67 | 30 | 7.0 | 15.0 | 0.00 | 0.00 | 0.00 | 26 | 1009.8 |
| 20260905150022 | 67 | 5 | 4.0 | 12.0 | 0.00 | 0.00 | 0.00 | 13 | 1009.8 |
| 20260905144551 | 66 | 313 | 2.0 | 13.0 | 0.00 | 0.00 | 0.00 | 1 | 1009.8 |
| 20260905143051 | 65 | 5 | 5.0 | 10.0 | 0.00 | 0.00 | 0.00 | 1 | 1009.6 |
| 20260905141558 | 65 | 31 | 5.0 | 13.0 | 0.00 | 0.00 | 0.00 | 10 | 1009.7 |
| 20260905140047 | 64 | 342 | 4.0 | 11.0 | 0.00 | 0.00 | 0.00 | 1 | 1009.5 |
| 20260905134549 | 64 | 340 | 4.0 | 10.0 | 0.00 | 0.00 | 0.00 | 8 | 1009.7 |
| 20260905133046 | 64 | 348 | 5.0 | 10.0 | 0.00 | 0.00 | 0.00 | 1 | 1009.7 |
| 20260905131547 | 63 | 338 | 3.0 | 7.0 | 0.00 | 0.00 | 0.00 | 1 | 1009.8 |
| 20260905130142 | 62 | 277 | 1.0 | 6.0 | 0.00 | 0.00 | 0.00 | 1 | 1009.9 |
| 20260905124543 | 62 | 10 | 3.0 | 5.0 | 0.00 | 0.00 | 0.00 | 1 | 1010.0 |
| 20260905123038 | 61 | 10 | 1.0 | 9.0 | 0.00 | 0.00 | 0.00 | 1 | 1009.9 |
| 20260905121533 | 60 | 150 | 0.0 | 3.0 | 0.00 | 0.00 | 0.00 | 1 | 1009.8 |
| 20260905120027 | 58 | 159 | 1.0 | 4.0 | 0.00 | 0.00 | 0.00 | 1 | 1009.8 |
| 20260905114525 | 57 | 166 | 0.0 | 0.0 | 0.00 | 0.00 | 0.00 | 1 | 1009.8 |
| 20260905113018 | 56 | 165 | 0.0 | 2.0 | 0.00 | 0.00 | 0.00 | 1 | 1009.6 |
| 20260905111511 | 56 | 167 | 0.0 | 0.0 | 0.00 | 0.00 | 0.00 | 1 | 1009.2 |
| 20260905110006 | 55 | 163 | 0.0 | 2.0 | 0.00 | 0.00 | 0.00 | 1 | 1009.0 |
| 20260905104502 | 56 | 162 | 0.0 | 0.0 | 0.00 | 0.00 | 0.00 | 1 | 1009.0 |
| 20260905103058 | 56 | 161 | 0.0 | 1.0 | 0.00 | 0.00 | 0.00 | 1 | 1008.7 |
| 20260905101551 | 56 | 168 | 0.0 | 1.0 | 0.00 | 0.00 | 0.00 | 1 | 1008.6 |
| 20260905100100 | 56 | 167 | 0.0 | 0.0 | 0.00 | 0.00 | 0.00 | 1 | 1008.5 |
| 20260905094543 | 56 | 168 | 0.0 | 0.0 | 0.00 | 0.00 | 0.00 | 1 | 1008.5 |
| 20260905093040 | 56 | 164 | 0.0 | 0.0 | 0.00 | 0.00 | 0.00 | 1 | 1008.6 |
| 20260905091503 | 56 | 169 | 0.0 | 2.0 | 0.00 | 0.00 | 0.00 | 1 | 1008.4 |
| 20260905090134 | 57 | 174 | 0.0 | 3.0 | 0.00 | 0.00 | 0.00 | 1 | 1008.5 |
| 20260905084524 | 57 | 162 | 1.0 | 3.0 | 0.00 | 0.00 | 0.00 | 1 | 1008.4 |
| 20260905083031 | 57 | 171 | 0.0 | 1.0 | 0.00 | 0.00 | 0.00 | 1 | 1008.5 |
| 20260905081514 | 57 | 166 | 0.0 | 1.0 | 0.00 | 0.00 | 0.00 | 1 | 1008.6 |
| 20260905080009 | 57 | 135 | 0.0 | 2.0 | 0.00 | 0.00 | 0.00 | 1 | 1008.6 |
| 20260905074504 | 57 | 173 | 0.0 | 3.0 | 0.00 | 0.00 | 0.00 | 1 | 1008.7 |
| 20260905073106 | 56 | 132 | 0.0 | 0.0 | 0.00 | 0.00 | 0.00 | 1 | 1008.7 |
| 20260905071556 | 57 | 163 | 0.0 | 0.0 | 0.00 | 0.00 | 0.00 | 1 | 1008.7 |
| 20260905070056 | 57 | 132 | 0.0 | 2.0 | 0.00 | 0.00 | 0.00 | 1 | 1008.8 |
| 20260905064545 | 57 | 166 | 0.0 | 2.0 | 0.00 | 0.00 | 0.00 | 1 | 1008.9 |
| 20260905063040 | 57 | 139 | 0.0 | 3.0 | 0.00 | 0.00 | 0.00 | 1 | 1009.0 |
| 20260905061540 | 57 | 185 | 0.0 | 3.0 | 0.00 | 0.00 | 0.00 | 1 | 1009.1 |
| 20260905060001 | 57 | 167 | 0.0 | 2.0 | 0.00 | 0.00 | 0.00 | 1 | 1009.0 |
| 20260905054557 | 57 | 69 | 0.0 | 1.0 | 0.00 | 0.00 | 0.00 | 1 | 1009.2 |
| 20260905053023 | 56 | 74 | 0.0 | 1.0 | 0.00 | 0.00 | 0.00 | 1 | 1009.3 |
| 20260905051526 | 57 | 167 | 0.0 | 0.0 | 0.00 | 0.00 | 0.00 | 1 | 1009.4 |
| 20260905050013 | 57 | 169 | 0.0 | 1.0 | 0.00 | 0.00 | 0.00 | 1 | 1009.5 |
| 20260905044509 | 57 | 128 | 0.0 | 2.0 | 0.00 | 0.00 | 0.00 | 1 | 1009.6 |
| 20260905043003 | 57 | 150 | 0.0 | 0.0 | 0.00 | 0.00 | 0.00 | 1 | 1009.5 |
| 20260905041559 | 57 | 153 | 0.0 | 1.0 | 0.00 | 0.00 | 0.00 | 1 | 1009.6 |
| 20260905040054 | 57 | 153 | 0.0 | 1.0 | 0.00 | 0.00 | 0.00 | 1 | 1009.7 |
| 20260905034548 | 58 | 159 | 0.0 | 1.0 | 0.00 | 0.00 | 0.00 | 1 | 1009.7 |
| 20260905033045 | 58 | 161 | 0.0 | 2.0 | 0.00 | 0.00 | 0.00 | 1 | 1009.4 |
| 20260905031548 | 58 | 170 | 0.0 | 0.0 | 0.00 | 0.00 | 0.00 | 1 | 1009.4 |
| 20260905030032 | 58 | 240 | 0.0 | 0.0 | 0.00 | 0.00 | 0.00 | 1 | 1009.4 |
| 20260905024532 | 58 | 136 | 0.0 | 0.0 | 0.00 | 0.00 | 0.00 | 1 | 1009.6 |
| 20260905023027 | 58 | 175 | 0.0 | 0.0 | 0.00 | 0.00 | 0.00 | 1 | 1009.8 |
| 20260905021519 | 59 | 346 | 0.0 | 0.0 | 0.00 | 0.00 | 0.00 | 1 | 1009.7 |
| 20260905020012 | 59 | 346 | 0.0 | 0.0 | 0.00 | 0.00 | 0.00 | 1 | 1009.7 |
| 20260905014508 | 59 | 344 | 0.0 | 0.0 | 0.00 | 0.00 | 0.00 | 1 | 1009.7 |
| 20260905013002 | 60 | 346 | 0.0 | 0.0 | 0.00 | 0.00 | 0.00 | 1 | 1009.8 |
| 20260905011600 | 60 | 345 | 0.0 | 0.0 | 0.00 | 0.00 | 0.00 | 1 | 1009.8 |
| 20260905010105 | 61 | 331 | 0.0 | 0.0 | 0.00 | 0.00 | 0.00 | 1 | 1009.6 |
| 20260905004548 | 61 | 340 | 0.0 | 0.0 | 0.00 | 0.00 | 0.00 | 1 | 1009.6 |
| 20260905003043 | 62 | 144 | 0.0 | 0.0 | 0.00 | 0.00 | 0.00 | 1 | 1009.7 |
| 20260905001547 | 63 | 173 | 0.0 | 0.0 | 0.00 | 0.00 | 0.00 | 1 | 1009.5 |
| 20260905000041 | 64 | 155 | 0.0 | 0.0 | 0.00 | 0.00 | 0.00 | 6 | 1009.2 |
| 20260904234533 | 65 | 161 | 0.0 | 0.0 | 0.00 | 0.00 | 0.00 | 15 | 1009.1 |
| 20260904233024 | 66 | 168 | 0.0 | 0.0 | 0.00 | 0.00 | 0.00 | 26 | 1009.0 |
| 20260904231525 | 67 | 143 | 0.0 | 3.0 | 0.00 | 0.00 | 0.00 | 44 | 1008.9 |
| 20260904230034 | 69 | 145 | 1.0 | 3.0 | 0.00 | 0.00 | 0.00 | 55 | 1008.9 |
| 20260904224510 | 70 | 309 | 2.0 | 5.0 | 0.00 | 0.00 | 0.00 | 58 | 1008.9 |
| 20260904223005 | 71 | 340 | 2.0 | 5.0 | 0.00 | 0.00 | 0.00 | 58 | 1008.9 |
| 20260904221505 | 72 | 25 | 5.0 | 11.0 | 0.00 | 0.00 | 0.00 | 58 | 1008.6 |
| 20260904220037 | 72 | 66 | 3.0 | 14.0 | 0.00 | 0.00 | 0.00 | 58 | 1008.6 |
| 20260904214534 | 73 | 331 | 5.0 | 10.0 | 0.00 | 0.00 | 0.00 | 57 | 1008.5 |
| 20260904213030 | 73 | 310 | 6.0 | 13.0 | 0.00 | 0.00 | 0.00 | 57 | 1008.6 |
| 20260904211529 | 73 | 360 | 5.0 | 14.0 | 0.00 | 0.00 | 0.00 | 58 | 1008.5 |
| 20260904210031 | 73 | 316 | 4.0 | 10.0 | 0.00 | 0.00 | 0.00 | 57 | 1008.7 |
| 20260904204528 | 74 | 24 | 5.0 | 15.0 | 0.00 | 0.00 | 0.00 | 56 | 1008.7 |
| 20260904203126 | 75 | 101 | 2.0 | 8.0 | 0.00 | 0.00 | 0.00 | 56 | 1008.7 |
| 20260904201558 | 75 | 346 | 5.0 | 11.0 | 0.00 | 0.00 | 0.00 | 54 | 1008.9 |
| 20260904200100 | 75 | 348 | 4.0 | 11.0 | 0.00 | 0.00 | 0.00 | 55 | 1009.0 |
| 20260904194552 | 74 | 5 | 5.0 | 15.0 | 0.00 | 0.00 | 0.00 | 55 | 1008.9 |
| 20260904193051 | 75 | 327 | 8.0 | 19.0 | 0.00 | 0.00 | 0.00 | 54 | 1009.0 |
| 20260904191550 | 75 | 5 | 1.0 | 12.0 | 0.00 | 0.00 | 0.00 | 55 | 1009.1 |
| 20260904190049 | 75 | 11 | 4.0 | 12.0 | 0.00 | 0.00 | 0.00 | 55 | 1009.0 |
| 20260904184604 | 75 | 5 | 4.0 | 11.0 | 0.00 | 0.00 | 0.00 | 54 | 1009.2 |
| 20260904183043 | 76 | 11 | 3.0 | 9.0 | 0.00 | 0.00 | 0.00 | 55 | 1009.3 |
| 20260904181539 | 75 | 344 | 4.0 | 10.0 | 0.00 | 0.00 | 0.00 | 56 | 1009.3 |
| 20260904180039 | 75 | 302 | 3.0 | 8.0 | 0.00 | 0.00 | 0.00 | 57 | 1009.2 |
| 20260904174607 | 73 | 258 | 6.0 | 12.0 | 0.00 | 0.00 | 0.00 | 58 | 1009.6 |